GFSCGP_850_temp_231.txt.gz
Temp
6 4 5 6 7 7 6 6 6 8 9 8 9 8 9 12 12 12 13 14 15 15 16 16 16 17 16 14 14 13 13 13 12 12 11 11 11 11 11 11 11 11 11 10
5 6 7 7 7 7 6 6 5 7 9 9 8 8 9 10 11 12 12 13 14 15 16 16 15 15 15 15 16 14 13 13 13 12 12 11 11 11 11 11 11 11 11 10
6 7 7 7 7 7 7 6 7 6 7 7 7 6 8 10 10 11 12 13 14 14 15 16 15 15 15 15 14 15 14 13 13 12 11 11 11 11 10 10 10 11 11 11
6 8 8 8 8 8 8 6 7 6 5 5 6 3 6 8 11 11 11 12 13 14 15 15 15 14 14 15 15 15 15 14 12 12 12 11 12 11 12 11 11 11 11 11
5 5 5 7 7 8 7 6 6 6 6 6 5 2 5 9 9 9 10 10 11 11 12 13 15 15 15 14 13 14 14 14 13 12 12 11 11 13 11 11 11 11 11 10
4 6 6 6 6 6 7 6 5 7 6 1 5 4 5 8 8 6 6 6 7 8 10 11 12 13 12 13 14 14 14 14 13 12 11 11 11 12 11 11 11 10 10 10
3 5 6 6 5 6 5 4 -2 2 3 0 7 5 5 6 5 4 4 4 6 6 6 8 10 11 12 11 11 14 14 14 13 12 11 11 11 11 12 12 11 10 10 10
3 2 6 6 6 5 5 4 4 4 3 3 5 6 6 5 4 3 3 3 4 5 5 5 7 8 10 11 12 11 13 14 13 13 12 11 11 12 11 12 11 11 10 10
3 -0 5 4 5 5 3 2 5 2 0 2 4 7 5 4 4 3 2 1 1 1 2 3 4 6 7 8 10 11 10 13 14 14 14 12 11 11 11 12 10 11 10 10
2 2 1 4 4 3 4 4 5 1 0 2 3 4 4 3 2 2 1 0 0 0 1 1 3 4 5 6 8 11 12 11 14 15 14 12 13 12 11 11 11 10 11 11
2 3 1 2 3 4 4 4 4 5 4 3 0 2 3 2 1 1 -0 -0 -1 -1 -1 -0 1 2 4 4 5 9 13 12 12 13 13 12 11 12 12 11 11 11 11 11
3 2 1 0 2 5 4 4 5 4 4 3 3 2 2 1 1 -0 -1 -1 -1 -2 -2 -2 -1 0 1 3 4 8 11 12 11 11 11 11 11 11 11 11 10 11 12 11
3 2 -0 1 3 3 1 4 4 4 3 4 4 3 2 1 0 -0 -1 -2 -2 -3 -3 -2 -1 -2 -1 -0 2 6 8 9 11 11 10 10 11 11 11 11 11 11 11 10
3 1 2 2 3 3 1 3 3 3 1 2 3 2 2 1 -0 -0 -1 -2 -2 -2 -3 -2 -2 -2 -2 -2 -0 5 7 8 8 9 10 10 10 10 10 10 10 11 11 11
3 2 0 2 2 3 3 3 2 2 3 3 1 2 1 1 -0 -1 -1 -2 -1 -2 -2 -2 -2 -2 -3 -2 -0 2 4 5 6 7 7 7 8 8 9 10 10 10 10 10
2 -0 2 -1 2 3 2 3 0 -1 3 2 1 1 1 0 -0 -0 -1 -1 -1 -1 -1 -1 -1 -1 -1 -1 -0 1 2 3 3 4 5 5 6 6 8 8 8 8 9 9
1 2 1 -0 1 1 3 2 2 3 2 2 0 2 1 0 1 -0 -0 -1 -2 -2 -3 -2 -2 -2 -1 -1 -0 1 1 2 2 3 3 4 4 5 6 5 6 5 6 5
0 -0 1 2 -1 2 2 2 1 2 2 2 2 1 1 1 1 0 0 -0 -1 -1 -2 -2 -2 -1 -2 -2 -1 -0 1 2 2 3 3 4 4 4 5 5 5 5 6 5
1 1 0 1 3 2 2 2 2 2 2 2 2 1 1 2 2 1 1 0 -0 -1 -1 -1 -2 -2 -1 1 2 2 2 2 3 3 4 4 5 5 5 5 5 5 5 5
1 0 1 -3 3 1 4 3 3 3 2 1 2 3 3 3 2 0 1 0 -0 -0 -0 -0 -0 -0 1 1 2 2 2 3 3 3 3 3 4 4 4 4 4 4 4 3
-8 -4 -0 -5 2 3 4 2 3 2 5 3 3 3 3 2 3 2 1 1 0 0 0 1 1 1 1 1 2 2 2 2 1 2 2 3 3 3 3 3 3 3 3 3
-3 -4 -2 -1 2 1 3 1 3 4 4 4 4 4 3 3 3 2 2 1 1 1 1 1 1 1 1 1 1 1 1 0 0 1 2 2 3 3 3 3 3 3 3 3
-2 -0 -1 -0 0 3 4 5 5 5 4 4 4 4 3 3 2 2 2 2 2 1 1 1 1 0 1 1 1 1 1 0 1 1 1 2 2 2 2 2 2 2 2 1
-2 0 -3 -2 0 2 5 5 4 4 5 4 4 4 3 3 3 2 2 2 2 1 1 1 1 1 1 1 1 1 0 0 1 1 1 1 1 1 1 1 1 0 -0 -1
-1 -2 -5 -4 -1 1 3 4 5 4 4 4 4 4 4 3 3 2 2 2 2 1 1 1 1 1 1 1 1 1 1 1 1 1 1 0 0 0 -0 -1 -2 -3 -3 -4
-2 -3 -1 1 5 6 7 8 5 4 5 4 4 4 3 3 3 3 3 2 1 1 1 1 1 1 1 1 1 1 1 1 0 1 1 -0 -0 -0 -0 -0 -2 -3 -4 -4

GFSCGP_850_temp_234.txt.gz
Temp
6 4 4 5 6 6 6 6 5 6 8 7 7 6 8 10 10 10 11 12 13 14 15 15 15 15 15 15 14 14 14 14 13 12 12 12 12 12 11 11 11 10 10 10
4 5 5 6 7 6 6 5 5 6 7 7 6 7 7 8 9 10 11 12 12 13 14 14 16 15 15 14 15 14 14 14 14 13 12 12 12 12 12 11 11 11 10 10
5 7 7 7 7 7 7 6 5 5 5 6 7 8 6 9 10 9 9 10 10 10 11 12 13 15 15 14 14 14 14 14 13 13 12 11 11 12 11 11 11 11 10 10
5 6 6 6 8 7 5 6 6 5 4 4 6 5 7 7 7 7 6 5 6 7 9 9 10 12 13 14 14 14 14 14 14 13 12 12 12 11 12 11 11 11 11 10
5 5 5 5 5 6 6 5 5 6 6 4 5 2 7 6 6 5 4 4 4 5 7 8 8 9 11 12 12 13 13 13 13 13 13 13 11 12 11 11 11 11 11 11
4 5 5 6 5 5 5 6 4 5 4 -1 5 4 4 3 3 3 3 2 3 4 5 7 7 7 10 11 11 12 12 13 13 13 13 13 13 11 11 12 11 11 11 11
2 4 5 6 5 5 3 1 -2 -0 -1 1 5 4 4 4 3 2 2 1 1 1 2 4 4 6 6 9 10 10 11 12 12 13 13 13 12 11 11 11 11 11 11 11
2 2 4 5 5 5 4 5 2 1 2 2 5 6 3 4 3 2 1 1 1 0 0 0 1 2 4 5 7 9 10 9 10 12 13 13 13 12 11 11 11 11 10 11
-1 -0 3 4 4 4 4 3 4 3 -1 1 4 5 3 4 3 2 1 0 -0 -1 -1 -1 -1 -0 2 4 5 7 9 10 9 10 12 13 13 12 12 12 11 10 10 10
-0 -1 -1 3 4 3 4 4 4 2 1 0 1 2 3 2 2 2 1 -1 -1 -2 -2 -1 -2 -1 -0 2 4 5 7 10 12 11 12 12 13 13 12 11 11 10 11 10
1 0 0 1 1 4 4 3 4 4 4 2 1 1 2 1 1 1 -0 -1 -2 -3 -3 -3 -2 -1 -1 1 2 3 5 9 12 12 11 12 11 12 11 10 10 11 11 10
2 2 0 -1 1 4 4 3 4 3 4 2 2 3 1 1 -0 -1 -1 -2 -2 -2 -3 -3 -3 -2 -1 1 3 3 5 7 9 11 10 10 10 10 10 10 10 10 11 11
2 2 -1 0 2 1 1 4 4 3 2 3 4 1 1 -0 -1 -1 -1 -2 -2 -2 -2 -2 -2 -2 -2 -1 -0 2 4 5 7 9 11 11 10 9 10 10 10 10 10 10
2 1 -1 1 2 3 2 1 3 3 -1 1 2 -0 2 0 -0 -1 -1 -2 -1 -2 -2 -2 -2 -1 -2 -2 -2 0 2 3 5 8 8 9 9 9 9 9 10 10 10 10
2 -2 -3 -1 1 1 2 2 3 2 2 1 -0 0 1 0 -0 -1 -1 -1 -1 -1 -1 -2 -1 -1 -1 -2 -2 -1 0 3 4 6 7 7 7 7 7 9 9 9 9 9
1 -2 -2 -2 2 3 3 3 3 -1 2 1 1 -0 -0 0 0 0 -1 -1 -1 -2 -2 -2 -1 -1 -1 -1 -2 -2 1 1 3 3 4 4 5 5 5 6 6 7 7 8
1 -1 -3 -4 -2 1 0 1 1 1 2 3 1 -0 0 0 0 0 -0 -0 -1 -2 -2 -2 -2 -2 -1 -1 -1 -1 -0 2 2 4 3 3 4 4 5 6 5 7 7 6
-0 -1 -2 -2 -2 0 2 1 1 1 2 2 2 1 1 0 1 1 0 0 -0 -1 -1 -2 -2 -2 -2 -2 -1 -1 0 2 3 3 4 4 3 4 3 4 5 5 6 6
1 -0 -1 1 -3 2 2 2 2 2 2 2 2 1 1 1 1 1 1 1 1 1 -0 -1 -1 -2 -2 -2 -2 -1 -1 0 1 2 3 3 3 4 4 5 5 5 5 5
0 -1 -2 -2 -1 -1 3 2 3 4 2 2 2 1 2 2 1 -0 2 2 1 1 1 0 -1 -0 -0 -0 1 1 1 1 1 1 2 2 3 3 3 3 4 3 3 3
-2 -1 -4 -7 -4 -1 3 2 3 2 5 2 3 4 3 1 4 4 3 2 1 1 1 0 0 0 0 0 1 1 1 2 1 2 2 3 3 3 3 3 3 3 3 3
-4 -3 -4 -3 -5 -0 2 1 3 4 4 5 4 4 4 4 4 3 3 2 1 1 1 1 1 0 0 0 1 1 1 0 1 1 1 2 2 2 3 2 2 2 3 2
-3 -1 -3 -1 0 3 4 5 6 6 6 5 5 4 4 4 4 3 3 2 1 1 1 1 1 0 0 1 1 1 1 0 0 0 1 1 1 1 1 1 1 1 1 1
-2 -0 -3 -2 0 2 4 6 5 5 6 5 5 5 4 4 4 3 2 2 1 1 1 1 0 0 0 1 0 0 0 -0 -0 0 0 0 0 0 0 0 0 0 0 -0
-2 -2 -5 -4 -1 1 3 5 6 5 5 5 5 5 5 4 3 3 3 2 2 1 1 1 0 0 1 1 0 0 0 0 -0 -0 -0 0 0 -0 -0 -1 -1 -2 -2 -3
-2 -3 -1 1 6 7 8 10 8 6 5 5 5 4 4 4 4 3 3 2 1 1 1 1 0 1 1 1 0 0 1 1 0 0 0 0 0 -1 -1 -2 -3 -4 -3 -3

GFSCGP_850_temp_237.txt.gz
Temp
6 4 4 4 5 6 5 5 4 5 7 6 6 6 7 8 7 8 10 10 11 11 12 13 13 15 15 14 14 14 13 13 13 13 13 12 12 12 12 12 11 10 10 9
3 4 5 6 6 6 6 5 4 5 6 6 6 6 7 6 5 5 5 5 6 9 11 12 13 12 12 13 15 14 14 13 13 13 13 12 13 12 13 12 11 11 10 10
4 5 7 7 5 5 5 5 4 5 5 6 5 8 7 7 6 5 4 3 5 4 6 9 10 11 12 12 11 12 13 13 13 13 13 12 11 11 12 12 12 11 11 10
4 5 5 6 6 5 5 5 5 5 4 4 4 4 7 5 5 4 3 2 2 2 5 6 8 9 10 11 11 12 11 12 13 13 13 13 12 12 12 12 13 12 12 11
4 4 4 5 5 5 5 5 5 5 5 3 5 1 6 3 3 2 2 1 1 1 1 3 5 8 8 9 10 10 10 10 11 12 13 12 12 11 11 12 12 11 11 11
3 4 4 5 5 5 4 5 3 3 2 -1 5 3 3 2 2 2 2 1 0 -0 -0 1 2 5 8 9 9 10 10 11 11 11 11 12 12 12 11 11 11 11 11 11
1 3 5 5 4 4 3 1 -3 -0 -1 1 4 4 3 3 2 1 1 0 -0 -1 -1 -0 1 2 5 8 10 9 9 10 11 11 11 11 11 12 12 12 12 11 11 11
0 2 3 4 4 4 4 4 3 -1 2 1 4 5 4 4 3 2 1 -0 -1 -1 -2 -2 -1 -0 -0 4 6 8 8 10 9 9 10 11 11 11 12 12 12 12 11 11
1 -1 2 3 3 3 3 3 4 2 -0 1 3 3 3 3 2 1 1 -0 -1 -2 -2 -3 -2 -1 -1 -0 2 5 6 9 10 9 9 10 11 11 11 12 12 10 10 11
-1 0 -1 2 3 3 3 4 1 -0 0 0 1 2 4 2 1 1 0 -1 -2 -2 -2 -2 -3 -2 -1 -1 -1 2 3 5 9 10 11 11 12 12 11 10 10 10 10 10
2 1 0 0 2 4 3 0 4 3 3 1 2 1 2 1 0 0 -0 -1 -2 -2 -2 -2 -3 -3 -2 -1 -1 1 2 3 7 9 12 12 12 11 11 10 10 10 10 10
2 1 -0 -1 0 3 4 3 3 1 1 2 2 1 1 0 -0 -0 -1 -2 -2 -2 -2 -2 -2 -3 -3 -2 -1 0 2 3 4 6 9 11 10 10 10 10 10 9 9 9
1 -2 -2 -0 2 1 1 3 4 2 2 -1 1 -0 1 0 0 -1 -1 -2 -1 -1 -1 -2 -2 -3 -3 -3 -2 -0 1 2 4 5 7 9 9 9 9 9 9 9 10 10
2 -1 0 0 1 1 1 2 3 3 -2 -1 -0 -1 -1 1 0 -1 -1 -1 -1 -1 -1 -1 -1 -2 -2 -2 -2 -1 -1 0 2 4 6 7 8 9 9 9 9 8 9 9
1 -3 -3 -0 -1 1 1 2 3 2 3 1 -2 -3 -0 -1 0 -1 -1 -1 -1 -1 -2 -1 -2 -2 -2 -1 -1 -1 -0 -0 0 2 5 5 7 7 7 8 8 8 8 8
1 -2 -3 -1 1 3 2 3 3 2 1 1 -1 -1 1 1 -1 -0 0 -0 -1 -2 -1 -2 -1 -2 -2 -1 -1 -2 -1 -1 -1 1 2 3 4 5 6 6 5 6 6 7
0 -3 -5 -2 -5 -4 -1 -0 3 1 -0 3 2 0 -1 -1 -1 0 1 1 -0 -1 -1 -2 -2 -2 -2 -1 -1 -1 -1 -1 -1 1 2 3 4 4 5 5 5 5 6 5
-0 -2 -3 -1 -4 1 2 0 1 0 0 1 1 -1 1 2 1 1 1 1 1 0 -1 -1 -1 -1 -2 -2 -1 -1 -1 -0 1 1 1 2 3 3 4 5 5 5 5 5
-0 -1 -6 -2 -7 0 1 2 1 2 2 1 2 1 2 2 1 2 2 2 1 1 1 0 0 0 -0 -0 -0 -0 -1 -1 1 2 1 2 2 2 4 4 4 4 3 4
-1 -1 -4 -3 -1 -2 4 2 3 3 2 2 2 1 1 1 -0 -0 4 2 1 1 1 1 0 1 0 0 0 0 0 0 0 1 2 2 2 3 3 3 4 3 3 3
-0 -0 -2 -10 -1 -2 1 2 3 2 6 3 4 3 2 -0 3 4 3 2 2 1 1 1 0 0 1 0 0 0 0 0 -0 -0 0 1 1 2 1 2 2 2 2 2
-4 -4 -6 -8 -5 -1 2 1 3 5 6 6 5 5 4 4 4 3 3 3 2 2 2 1 1 0 1 0 0 0 0 -0 0 0 0 1 1 1 2 2 3 3 3 3
-3 -1 -4 -2 -1 3 3 4 6 7 7 6 6 6 5 4 4 4 3 3 2 2 2 1 1 1 1 1 0 0 0 -0 -0 -0 1 1 1 2 2 2 2 2 2 2
-4 -1 -3 -3 1 1 4 5 5 5 7 8 7 6 5 5 4 4 3 3 3 2 2 1 1 1 1 1 1 1 1 1 -0 0 1 1 1 1 1 1 1 1 1 1
-2 -2 -5 -4 -1 1 4 6 7 6 6 6 6 6 6 5 4 4 3 3 2 2 2 1 1 1 1 1 1 1 1 1 0 0 0 1 1 1 1 1 1 -0 -1 -2
-2 -3 -1 1 6 7 9 11 10 7 6 6 6 5 5 5 5 4 4 3 3 2 2 2 1 1 1 1 1 1 1 1 1 0 0 1 1 0 -0 -1 -1 -2 -2 -2

GFSCGP_850_temp_240.txt.gz
Temp
6 4 4 4 5 5 5 5 4 5 6 5 5 4 4 4 3 3 3 3 5 6 7 9 10 11 13 13 12 12 12 13 12 12 11 11 12 12 11 11 11 11 11 10
3 4 4 5 5 5 5 5 3 4 5 6 4 6 4 4 3 2 2 1 2 6 8 8 8 9 9 10 11 11 12 11 12 12 11 11 11 12 12 13 12 12 11 10
3 5 5 6 4 4 4 4 4 4 4 5 5 6 5 5 3 3 2 1 1 1 4 6 7 8 8 9 9 10 11 11 11 12 12 11 11 11 11 11 12 11 11 11
4 4 4 4 5 4 5 5 4 4 3 4 4 3 6 3 3 3 1 1 0 1 2 4 6 8 8 8 8 9 9 10 11 11 11 11 12 11 11 12 12 11 11 11
4 3 3 4 4 4 4 3 4 4 4 3 4 1 5 1 2 2 1 0 -1 -1 -0 1 3 5 7 7 9 8 9 9 10 10 11 11 11 11 11 11 12 11 12 11
3 4 4 5 4 4 3 4 3 2 2 -1 4 2 2 3 2 1 1 -0 -0 -1 -2 -1 1 3 5 6 7 8 9 9 9 10 10 11 11 11 11 11 11 11 11 11
1 3 4 4 3 4 2 -0 -3 0 -1 0 3 3 2 3 2 1 0 0 -1 -2 -2 -2 -2 -0 2 3 5 7 8 9 9 9 10 10 10 11 10 11 11 11 11 11
-3 2 3 3 3 3 3 2 -1 2 1 1 3 4 3 3 2 1 -0 -0 -1 -2 -2 -2 -3 -3 -2 0 1 3 6 8 9 9 9 9 10 10 10 11 11 11 11 11
0 -1 1 3 2 3 2 1 3 0 -0 1 2 2 2 2 1 1 0 -0 -1 -2 -2 -2 -3 -3 -3 -1 -1 -1 2 6 7 8 9 9 9 10 10 11 11 11 11 11
-0 1 -1 2 3 3 3 3 0 -1 -0 -0 1 2 3 2 1 1 0 -0 -1 -2 -2 -2 -2 -2 -2 -2 -1 -1 0 3 5 7 8 10 10 10 11 11 11 11 10 9
2 1 -0 -0 2 3 3 -0 3 3 3 2 1 1 2 1 1 0 0 -1 -2 -2 -2 -2 -2 -2 -3 -2 -2 -1 1 2 2 4 7 9 10 10 10 10 9 9 9 10
2 2 0 -2 -1 2 3 3 3 -0 -0 0 1 1 1 1 1 0 -1 -1 -2 -1 -1 -2 -2 -2 -2 -2 -2 -1 0 2 3 3 4 7 9 9 8 9 9 9 9 9
1 -2 -2 0 0 2 2 3 4 1 2 -1 1 0 -0 1 0 -0 -1 -2 -1 -0 -0 -1 -2 -2 -2 -2 -2 -2 -1 0 2 3 4 5 6 7 8 8 8 9 8 9
2 -3 -2 1 2 0 1 1 3 2 -1 -1 -0 -2 -3 -4 0 0 -1 0 -1 -0 -1 -1 -1 -2 -2 -2 -2 -2 -1 -0 1 2 3 5 6 6 7 8 8 8 8 8
1 -3 -4 -2 -1 -0 1 2 2 2 2 1 -2 -2 -3 -3 -2 0 -1 0 -0 -0 -0 -1 -1 -1 -2 -2 -1 -1 -1 -1 -0 1 2 4 4 5 6 7 8 8 8 8
-0 -3 -5 -5 -2 2 2 3 4 2 2 2 1 2 -0 2 1 -2 1 1 0 -1 -1 -1 -1 -1 -2 -2 -1 -1 -0 -1 -1 0 0 1 2 3 5 5 5 6 7 7
-0 -4 -7 -5 -6 -6 -1 -1 2 3 -0 -0 -0 1 -1 -1 -0 0 2 1 0 -1 -1 -0 -0 -1 -2 -1 -1 -1 -1 -0 0 1 -0 -0 -0 1 3 4 5 5 5 5
-1 -2 -3 -3 -5 -0 2 -0 1 0 -1 -0 -0 -1 0 1 2 2 2 2 1 1 0 -0 -0 -1 -1 -1 -1 -1 -1 -0 1 1 0 -0 0 1 2 3 4 3 4 5
-1 -1 -8 -3 -2 -1 0 1 -0 1 3 1 2 1 2 2 2 3 3 2 2 1 -0 -0 0 0 -0 0 1 1 0 0 1 1 1 2 2 2 2 3 3 3 3 3
-1 -2 -4 -8 -3 -2 3 2 2 3 2 2 3 2 1 1 -0 -1 4 3 2 1 1 1 1 1 1 1 1 1 1 1 0 1 1 1 1 2 2 2 3 2 2 3
-1 -0 -5 -4 -3 -3 1 2 2 2 6 4 4 4 2 -0 3 4 4 3 2 2 2 2 1 1 2 1 1 1 1 1 1 0 0 1 1 1 1 1 2 1 2 2
-3 -3 -7 -6 -5 -1 1 1 3 5 6 6 6 6 5 4 4 3 4 3 3 3 2 2 2 2 1 1 1 1 1 1 0 0 0 1 1 1 1 1 1 1 1 2
-3 -2 -4 -3 -2 3 3 4 6 6 6 7 7 7 6 5 4 4 4 4 3 3 2 2 2 2 2 2 1 1 1 1 0 0 -0 0 0 -0 0 0 1 1 2 2
-5 -1 -4 -3 1 0 4 6 6 6 7 7 7 7 7 6 5 4 4 4 3 3 3 2 2 2 2 2 2 2 1 1 1 0 -0 -0 -0 -0 0 0 1 1 1 1
-2 -3 -5 -4 -1 1 4 5 8 8 6 6 7 7 7 6 5 5 4 4 4 3 3 3 3 3 2 2 2 2 2 2 1 1 1 1 1 1 1 1 1 1 1 0
-2 -4 -1 2 6 8 10 11 11 9 9 8 7 7 6 5 6 5 5 4 4 4 3 3 3 3 2 2 2 2 2 2 2 2 1 1 1 1 1 0 0 0 -1 -1

GFSCGP_850_temp_246.txt.gz
Temp
7 9 7 7 7 7 7 8 8 8 8 8 7 6 6 5 5 5 5 4 4 3 4 7 7 7 7 8 9 10 10 11 10 11 10 11 11 11 11 11 10 10 10 10
9 7 6 6 7 7 8 8 8 7 7 8 7 7 6 6 4 4 3 3 3 2 2 4 5 7 8 8 8 8 9 10 11 10 11 11 11 11 11 10 11 11 10 10
8 6 6 7 7 7 7 6 6 6 7 7 8 8 8 6 6 4 3 3 2 1 1 1 4 5 7 8 9 9 8 9 9 10 11 11 10 10 10 10 11 11 11 10
6 5 6 7 6 6 7 5 5 6 7 9 7 10 9 7 7 6 4 3 1 1 1 1 1 4 5 6 7 9 9 8 8 9 10 10 11 10 11 11 10 11 10 10
6 6 6 7 5 5 7 5 6 6 7 7 8 8 10 7 7 6 4 2 1 0 -0 0 -0 -0 2 4 5 7 8 9 8 8 9 10 10 11 10 10 10 11 11 10
5 3 5 5 5 5 5 6 6 6 6 7 7 7 9 8 5 5 4 2 1 -0 -1 -0 -0 -1 -0 2 3 4 5 7 8 8 8 9 10 10 10 10 10 10 10 11
5 6 5 4 6 6 6 5 8 8 7 8 6 7 8 5 4 3 2 2 1 0 -0 -0 -1 -2 -2 -0 1 2 3 5 5 6 7 8 9 10 10 10 10 10 10 10
4 7 5 4 4 4 5 5 6 7 7 7 6 8 8 5 3 2 2 1 1 0 0 -0 -2 -2 -3 -2 -0 1 1 3 5 5 6 7 8 9 9 10 10 10 10 10
4 5 4 3 3 4 4 4 4 4 2 4 7 8 5 4 4 3 2 2 2 1 -0 -1 -2 -3 -3 -2 -1 0 -0 1 2 3 5 6 6 7 8 9 9 9 9 9
2 4 1 4 3 4 5 5 5 5 5 7 7 7 9 5 5 4 3 2 1 0 -0 -1 -2 -1 -1 -2 -1 -1 0 1 1 1 2 5 6 7 8 8 9 9 9 9
2 2 4 3 4 4 5 5 5 5 5 5 5 9 5 5 5 4 3 2 1 0 -1 -2 -1 -1 -1 -1 -1 -1 -1 0 1 2 1 2 4 6 8 8 8 8 8 8
3 2 4 3 2 2 4 5 5 5 4 4 4 7 4 4 3 2 2 1 0 -1 -1 -1 -0 -0 -1 -1 -1 -1 -0 0 1 1 2 2 3 4 5 6 8 8 8 8
3 2 6 4 3 3 3 4 5 4 3 3 5 8 2 2 1 1 1 1 1 0 -0 -0 0 0 -0 -1 -1 -1 -1 -0 0 1 2 3 3 4 5 6 7 7 8 8
2 -0 3 8 6 4 1 2 4 4 4 4 4 5 4 2 1 2 2 2 1 1 0 -0 0 -0 -0 -1 -1 -1 -1 -1 0 1 2 2 3 4 5 6 7 7 7 8
3 2 -2 -1 1 1 2 2 2 3 5 3 3 1 3 2 2 2 3 3 2 2 1 1 0 -0 -1 -1 -1 -1 -1 -1 -0 0 1 2 2 3 4 6 6 7 7 7
1 2 -2 -2 -2 -0 0 1 1 1 3 3 3 3 5 3 2 1 3 3 3 2 2 1 0 0 0 0 -0 -1 -1 -2 -1 0 0 0 1 2 3 3 4 5 4 5
2 1 0 4 -3 -3 2 1 2 3 3 4 3 4 4 2 2 2 4 3 3 3 2 2 1 1 1 1 0 0 -0 0 0 1 1 0 1 1 2 2 3 3 2 2
1 -0 -1 2 -1 8 5 2 2 3 3 3 3 3 4 4 3 3 4 4 3 3 2 2 1 1 1 2 1 0 1 1 2 1 1 1 0 1 1 1 3 2 2 1
1 2 -1 1 0 5 5 2 2 3 7 4 4 5 4 3 2 4 5 5 4 3 3 3 2 1 1 1 1 1 0 1 1 1 0 1 0 0 0 1 2 1 2 2
-0 1 2 -2 4 7 9 4 2 3 8 6 4 5 5 2 5 9 6 6 5 4 3 3 2 2 1 1 1 0 0 0 1 1 1 1 1 0 1 1 1 1 2 2
-1 -1 -0 -1 2 3 5 2 2 7 11 6 5 5 3 4 7 7 7 6 5 4 3 3 2 2 1 1 1 0 0 1 1 1 0 0 1 1 2 2 1 1 1 1
-0 -1 -1 -3 -1 4 1 1 6 10 8 7 7 6 5 6 6 6 6 5 5 4 4 3 2 2 1 1 1 0 0 1 1 0 0 1 1 1 1 1 1 0 1 1
1 2 1 2 4 4 3 5 7 7 8 8 8 8 7 7 6 6 6 5 5 4 4 3 2 2 2 1 1 1 1 1 1 1 1 1 1 1 1 1 1 1 1 1
-3 -1 1 -1 4 2 5 7 7 8 8 8 8 8 8 7 7 7 6 5 5 5 4 4 3 3 2 2 1 1 1 1 1 1 1 2 1 2 2 1 1 1 2 2
0 -2 -1 -1 1 3 5 6 10 10 9 8 8 7 8 8 7 7 7 6 6 5 5 4 4 3 2 2 2 2 2 2 2 2 2 2 2 2 2 2 2 2 2 2
-2 -0 3 7 8 11 11 13 12 11 11 12 9 8 8 8 8 7 8 7 7 6 5 5 4 4 3 3 3 2 2 2 2 2 2 2 2 2 2 2 2 2 2 2